Arctic Village, AK

8:11 AM AKDT on July 27, 2017 (GMT -0800)
Arctic Village

Weather History for PARC - October, 2013

Change the Weather History Date:

Wednesday, October 30, 2013

  Actual Average Record
Temperature  
Mean Temperature 12 °F -  
Max Temperature 21 °F 9 °F 25 °F (1962)
Min Temperature 1 °F -11 °F -34 °F (1992)
Degree Days  
Heating Degree Days 53    
Moisture  
Dew Point 8 °F    
Average Humidity 89    
Maximum Humidity 100    
Minimum Humidity 72    
Precipitation  
Precipitation 0.00 in - - ()
Sea Level Pressure  
Sea Level Pressure 29.34 in    
Wind  
Wind Speed 0 mph (North)    
Max Wind Speed 0 mph    
Max Gust Speed -    
Visibility 10 miles    
Events      
Averages and records for this station are not official NWS values.
T = Trace of Precipitation, MM = Missing Value Source: NWS Daily Summary

Daily Weather History Graph

Daily Weather History Graph

Search for Another Location

Airport or City:

Trip Planner

Search our weather history database for the weather conditions in past years. The results will help you decide how hot, cold, wet, or windy it might be!

Date:

Astronomy

Oct. 30, 2013 Rise Set
Actual Time 9:47 AM AKDT 5:02 PM AKDT
Civil Twilight 8:43 AM AKDT 6:07 PM AKDT
Nautical Twilight 7:36 AM AKDT 7:14 PM AKDT
Astronomical Twilight 6:31 AM AKDT 8:18 PM AKDT
Moon 3:57 AM AKDT (10/30) 4:26 PM AKDT (10/30)
Length of Visible Light 9h 23m
Length of Day
7h 14m
Waning Crescent, 16% of the Moon is Illuminated
Oct 30
Waning Crescent
Nov 3
New
Nov 9
First Quarter
Nov 17
Full
Nov 25
Last Quarter

Hourly Weather History & Observations

Time (AKDT) Temp. Dew Point Humidity Pressure Visibility Wind Dir Wind Speed Gust Speed Precip Events Conditions
12:16 AM 21.2 °F 19.4 °F 93% 29.35 in 10.0 mi Calm Calm - N/A   Overcast
12:36 AM 21.2 °F 19.4 °F 93% 29.35 in 10.0 mi Calm Calm - N/A   Overcast
12:56 AM 17.6 °F 17.6 °F 100% 29.36 in 10.0 mi Calm Calm - N/A   Overcast
1:16 AM 17.6 °F 17.6 °F 100% 29.36 in 10.0 mi Calm Calm - N/A   Overcast
1:36 AM 17.6 °F 14.0 °F 86% 29.36 in 10.0 mi Calm Calm - N/A   Overcast
1:56 AM 15.8 °F 15.8 °F 100% 29.36 in 10.0 mi Calm Calm - N/A   Overcast
2:16 AM 17.6 °F 17.6 °F 100% 29.36 in 10.0 mi Calm Calm - N/A   Overcast
2:36 AM 15.8 °F 15.8 °F 100% 29.37 in 10.0 mi Calm Calm - N/A   Overcast
2:56 AM 14.0 °F 12.2 °F 93% 29.36 in 10.0 mi Calm Calm - N/A   Overcast
3:16 AM 17.6 °F 17.6 °F 100% 29.36 in 10.0 mi Calm Calm - N/A   Overcast
3:36 AM 15.8 °F 12.2 °F 86% 29.37 in 10.0 mi Calm Calm - N/A   Overcast
3:56 AM 15.8 °F 10.4 °F 79% 29.37 in 10.0 mi Calm Calm - N/A   Overcast
4:16 AM 14.0 °F 12.2 °F 93% 29.37 in 10.0 mi Calm Calm - N/A   Overcast
4:36 AM 15.8 °F 15.8 °F 100% 29.36 in 10.0 mi Calm Calm - N/A   Overcast
4:56 AM 15.8 °F 15.8 °F 100% 29.36 in 10.0 mi Calm Calm - N/A   Overcast
5:16 AM 15.8 °F 15.8 °F 100% 29.36 in 10.0 mi Calm Calm - N/A   Overcast
5:36 AM 12.2 °F 10.4 °F 92% 29.36 in 10.0 mi Calm Calm - N/A   Scattered Clouds
5:56 AM 15.8 °F 15.8 °F 100% 29.35 in 10.0 mi Calm Calm - N/A   Mostly Cloudy
6:16 AM 12.2 °F 6.8 °F 79% 29.35 in 10.0 mi Calm Calm - N/A   Mostly Cloudy
6:36 AM 12.2 °F 6.8 °F 79% 29.35 in 10.0 mi Calm Calm - N/A   Partly Cloudy
6:56 AM 10.4 °F 5.0 °F 79% 29.35 in 10.0 mi Calm Calm - N/A   Partly Cloudy
7:16 AM 10.4 °F 10.4 °F 100% 29.34 in 10.0 mi Calm Calm - N/A   Partly Cloudy
7:36 AM 8.6 °F 5.0 °F 85% 29.34 in 10.0 mi Calm Calm - N/A   Mostly Cloudy
7:56 AM 8.6 °F 6.8 °F 92% 29.34 in 10.0 mi Calm Calm - N/A   Partly Cloudy
8:16 AM 8.6 °F 3.2 °F 79% 29.34 in 10.0 mi Calm Calm - N/A   Clear
8:36 AM 8.6 °F 8.6 °F 100% 29.34 in 10.0 mi Calm Calm - N/A   Partly Cloudy
8:56 AM 10.4 °F 6.8 °F 85% 29.34 in 10.0 mi Calm Calm - N/A   Clear
9:16 AM 8.6 °F 8.6 °F 100% 29.34 in 10.0 mi Calm Calm - N/A   Clear
9:36 AM 8.6 °F 8.6 °F 100% 29.34 in 10.0 mi Calm Calm - N/A   Clear
9:56 AM 6.8 °F -0.4 °F 72% 29.34 in 10.0 mi Calm Calm - N/A   Clear
10:16 AM 5.0 °F -0.4 °F 78% 29.35 in 10.0 mi Calm Calm - N/A   Clear
10:36 AM 6.8 °F 3.2 °F 85% 29.35 in 10.0 mi Calm Calm - N/A   Clear
10:56 AM 6.8 °F 6.8 °F 100% 29.35 in 10.0 mi Calm Calm - N/A   Clear
11:16 AM 6.8 °F 3.2 °F 85% 29.35 in 10.0 mi Calm Calm - N/A   Clear
11:36 AM 6.8 °F 6.8 °F 100% 29.34 in 10.0 mi Calm Calm - N/A   Clear
11:56 AM 8.6 °F 6.8 °F 92% 29.35 in 10.0 mi Calm Calm - N/A   Clear
12:16 PM 10.4 °F 8.6 °F 92% 29.34 in 10.0 mi Calm Calm - N/A   Clear
12:36 PM 10.4 °F 6.8 °F 85% 29.34 in 10.0 mi Calm Calm - N/A   Clear
12:56 PM 10.4 °F 6.8 °F 85% 29.34 in 10.0 mi Calm Calm - N/A   Clear
1:16 PM 8.6 °F 8.6 °F 100% 29.34 in 10.0 mi North - - N/A   Clear
1:36 PM 8.6 °F 5.0 °F 85% 29.34 in 10.0 mi North - - N/A   Clear
1:56 PM 10.4 °F 6.8 °F 85% 29.34 in 10.0 mi North - - N/A   Partly Cloudy
2:16 PM 10.4 °F 10.4 °F 100% 29.34 in 10.0 mi North - - N/A   Mostly Cloudy
2:36 PM 10.4 °F 8.6 °F 92% 29.34 in 10.0 mi North - - N/A   Overcast
2:56 PM 10.4 °F 6.8 °F 85% 29.34 in 10.0 mi North - - N/A   Scattered Clouds
3:16 PM 8.6 °F 6.8 °F 92% 29.33 in 10.0 mi North - - N/A   Partly Cloudy
3:36 PM 8.6 °F 6.8 °F 92% 29.33 in 10.0 mi North - - N/A   Mostly Cloudy
3:56 PM 10.4 °F 8.6 °F 92% 29.32 in 10.0 mi North - - N/A   Overcast
4:16 PM 10.4 °F 8.6 °F 92% 29.32 in 10.0 mi North - - N/A   Overcast
4:36 PM 12.2 °F 8.6 °F 85% 29.32 in 10.0 mi North - - N/A   Overcast
4:56 PM 12.2 °F 6.8 °F 79% 29.32 in 10.0 mi North - - N/A   Overcast
5:16 PM 12.2 °F 8.6 °F 85% 29.31 in 10.0 mi North - - N/A   Overcast
5:36 PM 10.4 °F 8.6 °F 92% 29.31 in 10.0 mi North - - N/A   Overcast
5:56 PM 12.2 °F 8.6 °F 85% 29.31 in 10.0 mi North - - N/A   Overcast
6:16 PM 10.4 °F 6.8 °F 85% 29.31 in 10.0 mi North - - N/A   Overcast
6:36 PM 10.4 °F 6.8 °F 85% 29.31 in 10.0 mi North - - N/A   Overcast
6:56 PM 10.4 °F 6.8 °F 85% 29.31 in 10.0 mi North - - N/A   Overcast
7:16 PM 10.4 °F 6.8 °F 85% 29.31 in 10.0 mi North - - N/A   Overcast
7:36 PM 10.4 °F 8.6 °F 92% 29.31 in 10.0 mi North - - N/A   Overcast
7:56 PM 8.6 °F 3.2 °F 79% 29.31 in 10.0 mi North - - N/A   Overcast
8:16 PM 8.6 °F 5.0 °F 85% 29.32 in 10.0 mi North - - N/A   Overcast
8:36 PM 8.6 °F 6.8 °F 92% 29.32 in 10.0 mi North - - N/A   Overcast
8:56 PM 8.6 °F 3.2 °F 79% 29.32 in 10.0 mi North - - N/A   Overcast
9:16 PM 8.6 °F 3.2 °F 79% 29.32 in 10.0 mi North - - N/A   Overcast
9:36 PM 8.6 °F 3.2 °F 79% 29.32 in 10.0 mi North - - N/A   Overcast
9:56 PM 6.8 °F 3.2 °F 85% 29.32 in 10.0 mi North - - N/A   Scattered Clouds
10:16 PM 6.8 °F 1.4 °F 79% 29.32 in 10.0 mi North - - N/A   Mostly Cloudy
10:36 PM 6.8 °F 3.2 °F 85% 29.32 in 10.0 mi North - - N/A   Scattered Clouds
10:56 PM 5.0 °F 3.2 °F 92% 29.32 in 10.0 mi North - - N/A   Clear
11:16 PM 3.2 °F -2.2 °F 78% 29.33 in 10.0 mi North - - N/A   Clear
11:36 PM 3.2 °F 3.2 °F 100% 29.32 in 10.0 mi North - - N/A   Clear
11:56 PM 1.4 °F -2.2 °F 85% 29.33 in 10.0 mi North - - N/A   Clear